Home > Weather > Stans > Past weeks

Flag for Switzerland Past Weather in Stans, Nidwalden, Switzerland — Yesterday and Last 2 Weeks

Now
60 °F

Cool.


Feels Like: 60 °F
Forecast: 60 / 75 °F
Wind: 3 mph from West

Location: Giswil

Current Time: Aug 28, 2016 at 7:18:41 AM

Latest Report: Aug 28, 2016 at 6:00 AM


Visibility: N/A

Pressure: 30.12 "Hg

Humidity: 98%

Dew Point: 59 °F

Location of StansLocation

Past Weather in Stans — Graph

°F

Stans Temperature Yesterday

Maximum temperature yesterday: 86 °F (at 5:00 PM)
Minimum temperature yesterday: 58 °F (at 6:00 AM)
Average temperature yesterday: 70 °F

High & Low Weather Summary for the Past Weeks

 TemperatureHumidityPressure
High87 °F (Aug 26, 5:00 PM)100% (Aug 14, 3:00 AM)30.41 "Hg (Aug 14, 3:00 AM)
Low49 °F (Aug 22, 7:00 AM)44% (Aug 26, 5:00 PM)29.83 "Hg (Aug 17, 6:00 PM)
Average66 °F82%30.09 "Hg
* Reported Aug 13 6:00 AM — Aug 28 6:00 AM, Stans, Weather by CustomWeather, © 2016

Note: Actual official high and low records may vary slightly from our data, if they occured in-between our weather recording intervals... More about our weather records

Advertising

Stans Weather History for the Previous 24 Hours

Scroll right to see more
 ConditionsComfort  
Time TempWeatherWind HumidityBarometerVisibility
6:00 AM
Sun, Aug 28
60 °FCool.3 mph98%30.12 "HgN/A
5:00 AM62 °FCool.2 mph97%30.11 "HgN/A
4:00 AM63 °FMild.3 mph93%30.11 "HgN/A
3:00 AM66 °FMild.3 mph85%30.09 "HgN/A
2:00 AM67 °FMild.2 mph84%30.13 "HgN/A
1:00 AM69 °FMild.6 mph71%30.12 "HgN/A
12:00 AM72 °FMild.12 mph77%30.10 "HgN/A
11:00 PM
Sat, Aug 27
68 °FMild.2 mph91%30.07 "HgN/A
10:00 PM69 °FMild.2 mph88%30.06 "HgN/A
9:00 PM71 °FMild.1 mph86%30.04 "HgN/A
8:00 PM74 °FMild.3 mph67%30.02 "HgN/A
7:00 PM78 °FWarm.6 mph58%30.00 "HgN/A
6:00 PM80 °FWarm.5 mph59%29.99 "HgN/A
5:00 PM86 °FWarm.1 mph48%29.98 "HgN/A
4:00 PM86 °FWarm.1 mph49%29.99 "HgN/A
3:00 PM84 °FWarm.1 mph49%30.01 "HgN/A
2:00 PM83 °FWarm.1 mph51%30.03 "HgN/A
1:00 PM82 °FWarm.1 mph46%30.04 "HgN/A
12:00 PM77 °FWarm.1 mph54%30.07 "HgN/A
11:00 AM75 °FMild.1 mph64%30.09 "HgN/A
10:00 AM72 °FMild.1 mph72%30.10 "HgN/A
9:00 AM67 °FMild.1 mph83%30.10 "HgN/A
8:00 AM61 °FCool.1 mph98%30.11 "HgN/A
7:00 AM58 °FCool.1 mph98%30.11 "HgN/A
Weather by CustomWeather, © 2016

See weather overviewHow to use our weather pages